CW6734 Weather Reports


Display with metric or nautical units.
time (UTC)temp
F
wind
direction
speed
MPH
gust
MPH
rain 1hr
in
rain 24hr
in
rain mn
in
humidity
%
barometer
mb
20190120033136 29 40 5.0 14.0 0.00 0.01 0.01 90 1003.2
20190120032515 30 350 5.0 13.0 0.00 0.01 0.01 90 1003.4
20190120031553 30 9 3.0 10.0 0.00 0.01 0.01 91 1003.9
20190120025707 31 12 4.0 12.0 0.00 0.01 0.01 92 1003.6
20190120024441 31 31 5.0 14.0 0.00 0.01 0.01 91 1002.8
20190120024131 31 27 5.0 14.0 0.00 0.01 0.01 91 1002.9
20190120022904 31 55 5.0 14.0 0.00 0.01 0.01 91 1002.9
20190120022557 31 53 5.0 12.0 0.00 0.01 0.01 91 1002.6
20190120021003 31 43 5.0 13.0 0.00 0.01 0.01 91 1002.1
20190120020358 31 45 5.0 14.0 0.00 0.01 0.01 91 1002.1
20190120020101 31 70 5.0 14.0 0.00 0.01 0.01 91 1002.1
20190120015139 32 25 5.0 14.0 0.00 0.01 0.01 92 1001.5
20190120014533 32 5 5.0 14.0 0.00 0.01 0.01 92 1001.7
20190120013915 32 40 5.0 12.0 0.00 0.01 0.01 92 1003.1
20190120013615 32 68 4.0 12.0 0.00 0.01 0.01 92 1003.4
20190120013300 32 34 5.0 12.0 0.00 0.01 0.01 92 1003.8
20190120012959 32 68 6.0 12.0 0.00 0.01 0.01 92 1003.9
20190120012651 32 56 6.0 14.0 0.00 0.01 0.01 92 1003.7
20190120012353 32 59 5.0 14.0 0.00 0.01 0.01 92 1003.7
20190120012049 32 44 5.0 14.0 0.00 0.01 0.01 92 1004.0
20190120011746 32 26 5.0 14.0 0.00 0.01 0.01 92 1003.9
20190120011446 32 32 5.0 14.0 0.00 0.01 0.01 92 1004.0
20190120011134 32 43 5.0 14.0 0.00 0.01 0.01 92 1004.0
20190120010823 32 37 4.0 14.0 0.00 0.01 0.01 92 1003.8
20190120010200 33 13 4.0 15.0 0.00 0.01 0.01 92 1003.8
20190120004647 33 15 4.0 15.0 0.00 0.01 0.01 92 1004.5
20190120004037 33 57 5.0 15.0 0.00 0.01 0.01 92 1004.6
20190120003727 33 56 5.0 15.0 0.00 0.01 0.01 93 1004.4
20190120003415 33 70 5.0 15.0 0.00 0.01 0.01 93 1004.4
20190120003112 33 75 6.0 15.0 0.00 0.01 0.01 93 1004.3
20190120002806 33 40 7.0 15.0 0.00 0.01 0.01 92 1004.2
20190120002508 33 70 6.0 15.0 0.00 0.01 0.01 93 1004.1
20190120001544 33 52 4.0 11.0 0.00 0.01 0.01 93 1004.1
20190120001233 33 44 4.0 11.0 0.00 0.01 0.01 93 1004.3
20190120000323 33 29 4.0 14.0 0.00 0.01 0.01 93 1004.5
20190120000011 33 66 4.0 14.0 0.00 0.01 0.01 93 1004.3
20190119235657 33 38 5.0 14.0 0.00 0.01 0.01 93 1004.6
20190119234754 33 26 5.0 14.0 0.00 0.01 0.01 93 1004.5
20190119234458 33 48 5.0 14.0 0.00 0.01 0.01 93 1004.5
20190119233530 33 34 5.0 13.0 0.00 0.02 0.01 93 1004.6
20190119232928 33 90 5.0 12.0 0.00 0.02 0.01 93 1004.6
20190119232629 33 67 4.0 12.0 0.00 0.02 0.01 93 1004.7
20190119232315 33 36 5.0 12.0 0.00 0.02 0.01 93 1004.6
20190119232017 33 33 5.0 12.0 0.00 0.02 0.01 93 1004.7
20190119231709 33 36 4.0 12.0 0.00 0.02 0.01 93 1004.7
20190119231045 33 25 4.0 11.0 0.00 0.02 0.01 93 1004.7
20190119230734 34 5 4.0 14.0 0.00 0.02 0.01 93 1004.8
20190119225505 33 44 4.0 15.0 0.00 0.02 0.01 93 1004.8
20190119224845 33 47 5.0 15.0 0.00 0.02 0.01 93 1004.8
20190119224540 33 44 5.0 15.0 0.00 0.02 0.01 93 1004.7
20190119224238 33 51 4.0 15.0 0.00 0.02 0.01 94 1004.8
20190119223927 33 52 4.0 10.0 0.00 0.02 0.01 94 1004.7
20190119223623 33 252 4.0 10.0 0.00 0.02 0.01 94 1004.8
20190119223326 33 42 4.0 12.0 0.00 0.02 0.01 94 1004.9
20190119223028 33 43 4.0 12.0 0.00 0.02 0.01 94 1004.8
20190119222713 33 61 4.0 12.0 0.00 0.02 0.01 94 1004.9
20190119222054 33 5 4.0 12.0 0.00 0.02 0.01 94 1005.0
20190119221450 33 28 4.0 10.0 0.00 0.02 0.01 94 1004.7
20190119221153 33 28 4.0 10.0 0.00 0.02 0.01 94 1004.8
20190119220540 33 32 4.0 10.0 0.00 0.02 0.01 94 1004.8
20190119215931 33 43 5.0 14.0 0.00 0.02 0.01 94 1005.0
20190119215325 33 36 5.0 14.0 0.00 0.02 0.01 94 1005.2
20190119215014 33 45 5.0 14.0 0.00 0.02 0.01 94 1005.1
20190119214712 33 47 5.0 14.0 0.00 0.02 0.01 94 1005.2
20190119214108 33 72 5.0 14.0 0.00 0.02 0.01 94 1005.4
20190119213755 33 46 5.0 13.0 0.00 0.02 0.01 94 1005.4
20190119213149 33 28 5.0 13.0 0.00 0.03 0.01 94 1005.6
20190119212223 33 55 3.0 8.0 0.00 0.03 0.01 94 1006.0
20190119211924 33 47 3.0 8.0 0.00 0.03 0.01 94 1006.2
20190119211613 33 19 3.0 8.0 0.00 0.03 0.01 94 1006.2
20190119210647 33 61 2.0 8.0 0.00 0.03 0.01 94 1006.2
20190119210346 33 40 2.0 8.0 0.00 0.03 0.01 94 1006.4
20190119210030 33 91 3.0 13.0 0.00 0.03 0.01 94 1006.4
20190119203553 33 76 2.0 8.0 0.00 0.04 0.01 94 1006.6
20190119203248 33 81 2.0 6.0 0.00 0.04 0.01 94 1006.8
20190119202942 33 131 1.0 6.0 0.00 0.05 0.01 94 1006.9
20190119202634 33 53 2.0 14.0 0.00 0.05 0.01 94 1007.0
20190119202324 33 87 3.0 14.0 0.00 0.05 0.01 94 1007.0
20190119201709 33 39 4.0 14.0 0.00 0.05 0.01 94 1007.1
20190119201406 33 45 3.0 14.0 0.00 0.05 0.01 94 1007.3
20190119201053 33 31 3.0 14.0 0.00 0.06 0.01 94 1007.3
20190119200748 33 69 3.0 14.0 0.00 0.06 0.01 93 1007.3
20190119195833 33 54 3.0 11.0 0.00 0.06 0.01 93 1007.4
20190119195534 33 76 3.0 11.0 0.00 0.06 0.01 93 1007.5
20190119193950 33 96 1.0 9.0 0.00 0.06 0.01 93 1007.7
20190119193644 33 5 2.0 9.0 0.00 0.07 0.01 93 1007.9
20190119192436 33 122 1.0 7.0 0.00 0.07 0.01 93 1008.3
20190119192121 33 28 1.0 7.0 0.00 0.07 0.01 93 1008.3
20190119191807 33 61 1.0 8.0 0.00 0.07 0.01 93 1008.5
20190119191205 33 56 2.0 8.0 0.00 0.08 0.01 93 1008.6
20190119190857 33 74 1.0 8.0 0.00 0.08 0.01 93 1008.8
20190119190248 33 31 1.0 8.0 0.00 0.08 0.01 93 1008.8
20190119182207 33 40 2.0 9.0 0.00 0.09 0.01 92 1009.8
20190119181854 33 42 2.0 8.0 0.00 0.10 0.01 92 1009.9
20190119181548 33 46 2.0 9.0 0.00 0.10 0.01 92 1009.9
20190119181249 33 42 2.0 9.0 0.00 0.10 0.01 92 1009.9
20190119180949 33 46 2.0 9.0 0.00 0.10 0.01 92 1010.1
20190119180027 33 23 1.0 6.0 0.00 0.10 0.01 92 1010.3
20190119175408 33 104 2.0 8.0 0.00 0.10 0.01 92 1010.6
20190119175056 33 67 1.0 8.0 0.00 0.11 0.01 92 1010.8
20190119174743 33 46 1.0 8.0 0.00 0.11 0.01 92 1011.2
20190119174429 33 128 0.0 5.0 0.00 0.11 0.01 92 1011.4
20190119174120 33 67 0.0 3.0 0.00 0.11 0.01 92 1011.4
20190119173148 33 137 1.0 0.0 0.00 0.12 0.01 91 1011.9
20190119172843 33 69 1.0 7.0 0.00 0.12 0.01 91 1012.0
20190119172532 33 128 1.0 9.0 0.00 0.12 0.01 91 1012.2
20190119172235 33 118 0.0 9.0 0.00 0.12 0.01 91 1012.1
20190119170955 33 85 0.0 5.0 0.00 0.11 0.00 91 1012.7
20190119170643 33 92 0.0 3.0 0.00 0.11 0.00 91 1012.9
20190119170347 33 62 0.0 9.0 0.00 0.11 0.00 91 1013.0
20190119165123 33 51 0.0 0.0 0.00 0.12 0.00 91 1013.2
20190119162946 32 60 0.0 0.0 0.00 0.12 0.00 90 1013.7
20190119162645 32 96 0.0 8.0 0.00 0.13 0.00 90 1013.9
20190119162332 32 66 0.0 2.0 0.00 0.13 0.00 90 1013.8
20190119161725 32 59 0.0 4.0 0.00 0.13 0.00 90 1013.9
20190119160809 32 92 0.0 0.0 0.00 0.13 0.00 89 1014.4
20190119160502 32 75 0.0 3.0 0.00 0.13 0.00 89 1014.3
20190119160155 32 109 0.0 3.0 0.00 0.13 0.00 89 1014.4
20190119155844 32 44 0.0 7.0 0.00 0.13 0.00 89 1014.5
20190119154626 32 62 0.0 5.0 0.00 0.13 0.00 88 1014.5
20190119154322 32 55 0.0 5.0 0.00 0.13 0.00 89 1014.6
20190119154016 32 44 0.0 5.0 0.00 0.13 0.00 89 1014.6
20190119153717 32 74 0.0 5.0 0.00 0.13 0.00 88 1014.7
20190119153412 32 49 0.0 0.0 0.00 0.13 0.00 88 1014.7
20190119152807 32 38 0.0 1.0 0.00 0.13 0.00 87 1015.0
20190119152510 32 49 0.0 1.0 0.00 0.14 0.00 87 1015.1
20190119152201 32 66 0.0 0.0 0.00 0.14 0.00 87 1015.3
20190119151850 32 58 0.0 1.0 0.00 0.14 0.00 87 1015.4
20190119151541 32 49 0.0 2.0 0.00 0.14 0.00 86 1015.4
20190119151238 32 57 0.0 1.0 0.00 0.14 0.00 86 1015.6
20190119150932 32 89 0.0 0.0 0.00 0.14 0.00 86 1015.7
20190119150309 32 21 0.0 0.0 0.00 0.14 0.00 85 1015.8
20190119150008 32 112 0.0 0.0 0.00 0.14 0.00 85 1016.0
20190119145707 32 109 0.0 0.0 0.00 0.14 0.00 85 1016.1
20190119145103 32 74 0.0 10.0 0.00 0.14 0.00 85 1016.2
20190119144454 32 112 0.0 3.0 0.00 0.14 0.00 85 1016.1
20190119143243 32 179 0.0 1.0 0.00 0.14 0.00 85 1016.5
20190119142639 31 104 0.0 1.0 0.00 0.14 0.00 85 1016.5
20190119142337 31 178 0.0 3.0 0.00 0.14 0.00 84 1016.6
20190119142041 31 116 0.0 0.0 0.00 0.14 0.00 85 1016.6
20190119141429 31 76 0.0 3.0 0.00 0.14 0.00 85 1016.3
20190119140511 31 82 0.0 4.0 0.00 0.14 0.00 85 1016.4
20190119140206 31 44 0.0 6.0 0.00 0.14 0.00 85 1016.6
20190119135241 31 66 0.0 6.0 0.00 0.14 0.00 85 1016.9
20190119134926 31 35 0.0 6.0 0.00 0.14 0.00 85 1017.0
20190119134313 31 51 0.0 6.0 0.00 0.14 0.00 85 1017.0
20190119133706 31 159 0.0 5.0 0.00 0.15 0.00 84 1017.2
20190119133402 31 67 0.0 5.0 0.00 0.15 0.00 85 1017.3
20190119133102 31 46 0.0 5.0 0.00 0.15 0.00 84 1017.3
20190119132756 31 71 0.0 0.0 0.00 0.15 0.00 84 1017.4
20190119132454 31 70 0.0 1.0 0.00 0.15 0.00 84 1017.5
20190119132145 31 78 0.0 0.0 0.00 0.15 0.00 85 1017.4
20190119131532 31 57 0.0 0.0 0.00 0.15 0.00 84 1017.4
20190119131224 31 46 0.0 0.0 0.00 0.15 0.00 85 1017.4
20190119130621 31 114 0.0 5.0 0.00 0.15 0.00 85 1017.5
20190119125658 31 84 0.0 3.0 0.00 0.15 0.00 85 1017.3
20190119125046 31 54 0.0 4.0 0.00 0.15 0.00 85 1017.5
20190119124116 31 49 0.0 0.0 0.00 0.15 0.00 84 1017.5
20190119123818 31 91 0.0 1.0 0.00 0.15 0.00 84 1017.5
20190119123203 31 17 0.0 0.0 0.00 0.15 0.00 85 1017.8
20190119122853 31 54 0.0 8.0 0.00 0.15 0.00 84 1017.7
20190119122554 31 69 0.0 0.0 0.00 0.15 0.00 85 1017.5
20190119121940 31 63 1.0 9.0 0.00 0.15 0.00 84 1017.6
20190119121626 31 36 1.0 9.0 0.00 0.15 0.00 85 1017.6
20190119120415 31 50 0.0 8.0 0.00 0.15 0.00 85 1017.9
20190119120112 31 35 0.0 2.0 0.00 0.15 0.00 84 1018.0
20190119115809 31 38 0.0 6.0 0.00 0.15 0.00 85 1018.1
20190119115500 31 98 0.0 4.0 0.00 0.15 0.00 85 1018.2
20190119115155 31 67 0.0 1.0 0.00 0.15 0.00 85 1018.2
20190119114535 31 58 0.0 6.0 0.00 0.15 0.00 85 1018.1
20190119114232 31 43 0.0 2.0 0.00 0.15 0.00 85 1018.2
20190119113923 31 94 0.0 5.0 0.00 0.15 0.00 85 1018.5
20190119113611 31 98 0.0 2.0 0.00 0.15 0.00 85 1018.7
20190119112958 31 69 0.0 8.0 0.00 0.15 0.00 85 1018.6
20190119112652 31 50 1.0 8.0 0.00 0.15 0.00 85 1018.8
20190119112337 31 38 1.0 8.0 0.00 0.15 0.00 85 1018.8
20190119111413 31 57 1.0 8.0 0.00 0.15 0.00 85 1018.8
20190119111113 31 69 2.0 8.0 0.00 0.15 0.00 86 1018.8
20190119110810 31 58 2.0 8.0 0.00 0.15 0.00 86 1018.9
20190119110500 31 73 3.0 8.0 0.00 0.15 0.00 86 1019.0
20190119104622 31 59 2.0 7.0 0.00 0.16 0.00 87 1019.8
20190119104325 31 72 1.0 7.0 0.00 0.16 0.00 87 1019.8
20190119104013 31 64 1.0 7.0 0.00 0.16 0.00 88 1019.8
20190119103703 31 79 1.0 7.0 0.00 0.16 0.00 88 1019.9
20190119103351 31 61 2.0 7.0 0.00 0.16 0.00 88 1020.0
20190119103038 31 98 3.0 7.0 0.00 0.16 0.00 88 1019.9
20190119102437 31 33 2.0 7.0 0.00 0.16 0.00 88 1019.9
20190119101831 31 40 2.0 6.0 0.00 0.16 0.00 88 1020.1
20190119101220 31 44 2.0 6.0 0.00 0.16 0.00 88 1020.3
20190119100922 31 53 2.0 6.0 0.00 0.16 0.00 88 1020.4
20190119100617 31 53 2.0 6.0 0.00 0.16 0.00 88 1020.4
20190119100315 31 65 2.0 6.0 0.00 0.16 0.00 88 1020.4
20190119100017 31 92 2.0 6.0 0.00 0.16 0.00 88 1020.4
20190119095707 31 53 2.0 6.0 0.00 0.16 0.00 88 1020.5
20190119095410 31 74 2.0 6.0 0.00 0.16 0.00 88 1020.5
20190119095114 31 63 1.0 6.0 0.00 0.16 0.00 88 1020.7
20190119094806 31 43 1.0 4.0 0.00 0.16 0.00 88 1020.8
20190119094505 31 76 1.0 4.0 0.00 0.16 0.00 88 1020.8
20190119093600 31 43 2.0 5.0 0.00 0.16 0.00 88 1020.9
20190119093300 31 65 2.0 5.0 0.00 0.16 0.00 88 1020.9
20190119092703 31 46 2.0 5.0 0.00 0.16 0.00 89 1021.0
20190119092049 31 82 2.0 7.0 0.00 0.16 0.00 89 1020.7
20190119090510 31 51 0.0 7.0 0.00 0.16 0.00 89 1020.3
20190119085909 31 77 0.0 3.0 0.00 0.16 0.00 89 1020.3
20190119085246 31 75 0.0 2.0 0.00 0.16 0.00 89 1020.2
20190119084934 31 53 0.0 0.0 0.00 0.16 0.00 89 1020.3
20190119084628 31 49 0.0 0.0 0.00 0.16 0.00 89 1020.4
20190119084320 31 86 0.0 1.0 0.00 0.16 0.00 89 1020.4
20190119084010 31 55 0.0 2.0 0.00 0.16 0.00 89 1020.6
20190119083657 31 78 0.0 0.0 0.00 0.16 0.00 89 1020.6
20190119083348 31 55 0.0 0.0 0.00 0.16 0.00 89 1020.6
20190119083048 31 57 0.0 0.0 0.00 0.16 0.00 89 1020.4
20190119082430 31 86 0.0 0.0 0.00 0.16 0.00 89 1020.5
20190119081211 31 26 0.0 0.0 0.00 0.16 0.00 89 1021.1
20190119080559 31 59 0.0 3.0 0.00 0.16 0.00 89 1021.2
20190119080253 31 19 0.0 0.0 0.00 0.16 0.00 89 1021.1
20190119075949 31 54 0.0 0.0 0.00 0.16 0.00 89 1020.9
20190119075652 31 64 0.0 0.0 0.00 0.16 0.00 89 1021.2
20190119075350 31 73 0.0 0.0 0.00 0.16 0.00 89 1021.2
20190119075045 31 59 0.0 0.0 0.00 0.16 0.00 89 1021.3
20190119074128 31 56 0.0 0.0 0.00 0.16 0.00 90 1020.8
20190119073825 31 44 0.0 0.0 0.00 0.16 0.00 90 1020.6
20190119073514 31 34 0.0 0.0 0.00 0.16 0.00 90 1020.7
20190119073218 31 58 0.0 0.0 0.00 0.16 0.00 89 1020.8
20190119072608 31 51 0.0 0.0 0.00 0.16 0.00 89 1020.2
20190119072311 31 50 0.0 0.0 0.00 0.16 0.00 89 1020.2
20190119071709 31 69 0.0 0.0 0.00 0.16 0.00 89 1020.4
20190119070453 31 109 0.0 0.0 0.00 0.16 0.00 89 1020.7
20190119065544 31 63 0.0 0.0 0.00 0.16 0.00 89 1020.8
20190119064626 31 65 0.0 0.0 0.00 0.16 0.00 89 1021.2
20190119064319 32 66 0.0 0.0 0.00 0.16 0.00 89 1021.3
20190119063717 32 32 0.0 0.0 0.00 0.16 0.00 89 1021.3
20190119063116 32 32 0.0 0.0 0.00 0.16 0.00 89 1021.7
20190119062514 32 52 0.0 0.0 0.00 0.16 0.00 89 1022.0
20190119062215 32 59 0.0 2.0 0.00 0.16 0.00 89 1022.1
20190119061913 32 79 0.0 0.0 0.00 0.16 0.00 89 1022.1
20190119061616 32 42 0.0 0.0 0.00 0.16 0.00 89 1022.2
20190119061311 32 51 0.0 0.0 0.00 0.16 0.00 89 1022.0
20190119060656 32 42 0.0 0.0 0.00 0.16 0.00 89 1022.4
20190119060038 32 42 0.0 0.0 0.00 0.16 0.00 89 1022.3
20190119055729 32 38 0.0 0.0 0.00 0.16 0.00 89 1022.3
20190119055430 32 83 0.0 0.0 0.00 0.16 0.00 89 1022.5
20190119054520 32 52 0.0 0.0 0.00 0.16 0.00 88 1023.0
20190119054213 32 53 0.0 0.0 0.00 0.16 0.00 88 1023.0
20190119053902 32 53 0.0 0.0 0.00 0.16 0.00 88 1023.0
20190119053245 32 49 0.0 0.0 0.00 0.16 0.00 88 1023.0
20190119052947 32 49 0.0 0.0 0.00 0.16 0.00 88 1022.9
20190119052644 32 57 0.0 0.0 0.00 0.16 0.00 88 1022.9
20190119051728 32 42 0.0 0.0 0.00 0.16 0.00 88 1022.7
20190119051421 32 63 0.0 0.0 0.00 0.16 0.00 88 1022.8
20190119050802 32 46 0.0 0.0 0.00 0.16 0.00 88 1023.0
20190119050459 32 46 0.0 0.0 0.00 0.16 0.00 88 1023.1
20190119045854 32 96 0.0 0.0 0.00 0.16 0.16 88 1023.2
20190119044634 32 49 0.0 0.0 0.00 0.16 0.16 88 1023.4
20190119044034 32 49 0.0 0.0 0.00 0.16 0.16 88 1023.4
20190119042806 33 102 0.0 0.0 0.00 0.16 0.16 88 1023.3
20190119042504 33 53 0.0 0.0 0.00 0.16 0.16 87 1023.4
20190119042206 33 53 0.0 0.0 0.00 0.16 0.16 87 1023.4
20190119041258 33 53 0.0 0.0 0.00 0.16 0.16 87 1023.5
20190119041001 33 80 0.0 0.0 0.00 0.16 0.16 87 1023.5
20190119040647 33 46 0.0 0.0 0.00 0.16 0.16 87 1023.5
20190119040333 33 46 0.0 0.0 0.00 0.16 0.16 87 1023.5
20190119040023 33 44 0.0 0.0 0.00 0.16 0.16 87 1023.7
20190119035716 33 94 0.0 0.0 0.00 0.16 0.16 87 1023.7
20190119034813 33 59 0.0 0.0 0.00 0.16 0.16 87 1023.7
20190119034202 33 79 0.0 0.0 0.00 0.16 0.16 87 1023.7
20190119033856 33 63 0.0 0.0 0.00 0.17 0.16 87 1023.6